Volver al catálogo

STARLINK-37228

ActivoComunicacionesVLEO
NORAD 68570·PAYLOAD·🇺🇸 United States

Lanzado Apr 2, 2026 desde Cape Canaveral Space Force Station

Loading…

Próximos Pases (próximas 24 horas)

TLE

ActualizadoSource: CelesTrak SupGP

Época: Sep 15, 2026, 03:43 UTC

1 68570C 26070AE  26258.15534722 -.00077322  00000+0 -22848-2 0  2589
2 68570  53.1589 199.0200 0001399  89.0507 230.7605 15.34425392    13

Sigue STARLINK-37228 en tiempo real con AllMySat

Download on the App Store